Tiempo atmosférico en la estación meteorológica de Rojales, Alacant/Alicante (31 m.)



Fecha
DESCASC
Temp. máxima en grados centígrados (hora)
DESCASC
Temp. mínima en grados centígrados (hora)
DESCASC
Temp. media en grados centígrados
DESCASC
Racha de viento máxima en m/sg (hora)
DESCASC
Velocidad máxima media en intervalos de 10 minutos(hora)
DESCASC
Precipitaciones diarias en mm
DESCASC
Precipitaciones de 00:00 a 06:00 en mm
DESCASC
Precipitaciones de 06:00 a 12:00 en mm
DESCASC
Precipitaciones de 12:00 a 18:00 en mm
DESCASC
Precipitaciones de 18:00 a 24:00 en mm
DESCASC
22-11-2020 19 (14:50) 7.3 (06:00) 13.2 5.83 (16:30) 3.33 (16:30) 0 0 0 0 0
21-11-2020 18.9 (13:20) 9.6 (07:20) 14.3 6.39 (14:40) 3.89 (15:50) 0 0 0 0 0
20-11-2020 19.6 (12:40) 10.4 (06:30) 15 8.89 (13:40) 5.56 (13:40) 0.2 0 0.2 0 0
19-11-2020 22 (14:40) 13.2 (00:00) 17.6 5 (16:10) 3.33 (16:40) 0 0 0 0 0
18-11-2020 21.3 (15:30) 14 (00:00) 17.6 5.28 (16:30) 3.61 (16:10) 0 0 0 0 0
17-11-2020 22.5 (14:30) 14.4 (00:00) 18.4 6.67 (15:40) 3.61 (15:40) 0 0 0 0 0
16-11-2020 27.4 (15:30) 13.9 (00:00) 20.6 11.94 (16:40) 7.5 (16:30) 0 0 0 0 0
15-11-2020 26 (15:10) 14 (00:00) 20 8.89 (19:30) 5 (19:30) 0 0 0 0 0
14-11-2020 19.7 (14:10) 15 (00:00) 17.4 5 (21:20) 3.06 (21:10) 0.6 0 0 0.6 0
13-11-2020 22.7 (14:20) 15 (00:00) 18.9 6.94 (15:50) 4.17 (16:00) 0 0 0 0 0
12-11-2020 20.8 (13:40) 9.8 (00:00) 15.3 7.78 (16:40) 4.72 (17:00) 0.2 0 0.2 0 0
11-11-2020 20.6 (13:00) 11.1 (00:00) 15.9 5.28 (13:50) 3.61 (16:00) 0 0 0 0 0
10-11-2020 21.8 (13:50) 12.4 (00:00) 17.1 7.22 (15:10) 3.89 (16:30) 0 0 0 0 0
09-11-2020 23 (14:20) 12.3 (00:00) 17.7 6.39 (16:00) 4.44 (16:10) 0.2 0 0.2 0 0
08-11-2020 21.4 (12:50) 11.5 (00:00) 16.4 6.39 (13:50) 3.61 (13:50) 0 0 0 0 0
07-11-2020 24.4 (14:30) 15.7 (00:00) 20 15.83 (05:50) 9.44 (05:40) 0.4 0 0.4 0 0
06-11-2020 22.8 (12:30) 17.9 (00:00) 20.3 13.61 (12:40) 8.33 (12:40) 0 0 0 0 0
05-11-2020 21.9 (12:00) 18.5 (00:00) 20.2 15.56 (07:20) 9.44 (07:40) 0.2 0 0 0.2 0
04-11-2020 20.9 (11:20) 13.9 (00:00) 17.4 10.56 (16:20) 6.94 (16:00) 0.4 0 0.4 0 0
03-11-2020 21.4 (13:50) 13.9 (00:00) 17.6 10.28 (20:20) 5.56 (20:20) 0.2 0.2 0 0 0
02-11-2020 21.9 (12:40) 13.3 (00:00) 17.6 7.22 (14:10) 5 (14:10) 0.2 0.2 0 0 0
01-11-2020 22.9 (13:20) 11.4 (00:00) 17.1 5.28 (15:10) 3.33 (15:00) 0 0 0 0 0
31-10-2020 24.8 (13:10) 9.5 (00:00) 17.1 7.78 (15:50) 4.17 (16:50) 0.2 0 0.2 0 0
30-10-2020 25.5 (13:50) 10.4 (00:00) 17.9 5 (16:00) 3.33 (16:10) 0.2 0 0.2 0 0
29-10-2020 23.3 (13:10) 13 (00:00) 18.1 6.67 (13:30) 3.61 (13:50) 0 0 0 0 0
28-10-2020 25.3 (14:40) 11.7 (00:00) 18.5 7.5 (16:20) 5 (10:10) 0 0 0 0 0
27-10-2020 22.5 (15:00) 10.1 (00:00) 16.3 8.33 (00:30) 5.83 (00:20) 0 0 0 0 0
26-10-2020 21 (15:30) 15.4 (00:00) 18.2 16.11 (13:00) 9.44 (13:00) 0 0 0 0 0

Gráficas

Temp. máximas Temp. mínimas Temp. medias Precipitaciones Rachas de viento máximas Velocidades máximas media en intervalos de 10 minutos

Datos horarios

Fecha y hora oficial Temperatura (ºC) Velocidad del viento (km/h) Dirección del viento Racha (km/h) Dirección de racha Precipitación (mm) Presión (hPa) Tendencia (hPa) Humedad (%)
2020-11-24 23:00:00 11.7 4 Sudoeste 8 Sur 0 -- -- 87
2020-11-24 22:00:00 12.1 4 Oeste 19 Sur 0 -- -- 80
2020-11-24 21:00:00 14.4 9 Sur 19 Sur 0 -- -- 77
2020-11-24 20:00:00 14.6 11 Sur 19 Sur 0 -- -- 74
2020-11-24 19:00:00 14.9 8 Sur 15 Sur 0 -- -- 72
2020-11-24 18:00:00 15.6 8 Sur 18 Sur 0 -- -- 73
2020-11-24 17:00:00 16.4 9 Sudeste 18 Este 0 -- -- 72
2020-11-24 16:00:00 16.8 10 Sudeste 18 Sudeste 0 -- -- 70
2020-11-24 15:00:00 17.8 9 Sudeste 16 Sur 0 -- -- 63
2020-11-24 14:00:00 17.7 4 Sur 14 Sudeste 0 -- -- 61
2020-11-24 13:00:00 16.4 3 Noroeste 14 Oeste 0 -- -- 65
2020-11-24 12:00:00 14.6 8 Oeste 13 Oeste 0 -- -- 70
2020-11-24 11:00:00 12.1 10 Oeste 14 Oeste 0 -- -- 78
2020-11-24 10:00:00 10 7 Oeste 10 Oeste 0 -- -- 88
2020-11-24 09:00:00 7.3 4 Oeste 9 Oeste 0 -- -- 95
2020-11-24 08:00:00 6.4 2 Oeste 8 Oeste 0 -- -- 94
2020-11-24 07:00:00 6.8 2 Oeste 9 Oeste 0 -- -- 93
2020-11-24 06:00:00 7.3 5 Oeste 6 Oeste 0 -- -- 93
2020-11-24 05:00:00 7.7 3 Oeste 9 Oeste 0 -- -- 92
2020-11-24 04:00:00 8.3 5 Oeste 11 Oeste 0 -- -- 92
2020-11-24 03:00:00 8.5 3 Oeste 9 Oeste 0 -- -- 91
2020-11-24 02:00:00 8.7 4 Oeste 8 Oeste 0 -- -- 91
2020-11-24 01:00:00 9.3 5 Sudoeste 7 Oeste 0 -- -- 89
2020-11-24 00:00:00 9.9 0 Calma 4 Sudoeste 0 -- -- 89
2020-11-23 23:00:00 10.3 0 Calma 3 Sudoeste 0 -- -- 87
2020-11-23 22:00:00 10.8 0 Calma 4 Sudoeste 0 -- -- 86
2020-11-23 21:00:00 11.1 3 Sudoeste 6 Sur 0 -- -- 82
2020-11-23 20:00:00 13.6 6 Sur 10 Sur 0 -- -- 75
2020-11-23 19:00:00 13.5 4 Sudeste 7 Sudeste 0 -- -- 74
2020-11-23 18:00:00 14.9 4 Sudeste 15 Sudeste 0 -- -- 68
2020-11-23 17:00:00 16.2 7 Sudeste 17 Sudeste 0 -- -- 62
2020-11-23 16:00:00 17.3 8 Sudeste 16 Sudeste 0 -- -- 57
2020-11-23 15:00:00 18.4 9 Sudeste 15 Este 0 -- -- 54
2020-11-23 14:00:00 18 4 Sudeste 11 Sudoeste 0 -- -- 55
2020-11-23 13:00:00 16.4 5 Oeste 12 Oeste 0 -- -- 62
2020-11-23 12:00:00 14.6 9 Oeste 19 Oeste 0 -- -- 65
2020-11-23 11:00:00 12.1 12 Oeste 17 Oeste 0 -- -- 70
2020-11-23 10:00:00 9.6 9 Oeste 19 Oeste 0 -- -- 80
2020-11-23 09:00:00 7.3 7 Oeste 13 Oeste 0 -- -- 89
2020-11-23 08:00:00 6.3 4 Oeste 9 Oeste 0 -- -- 90
2020-11-23 07:00:00 6.3 5 Oeste 8 Oeste 0 -- -- 93
2020-11-23 06:00:00 6.4 0 Calma 3 Noroeste 0 -- -- 91
2020-11-23 05:00:00 7.8 3 Oeste 13 Oeste 0 -- -- 89
2020-11-23 04:00:00 7.9 5 Oeste 9 Oeste 0 -- -- 90
2020-11-23 03:00:00 8.1 4 Oeste 6 Sudoeste 0 -- -- 90
2020-11-23 02:00:00 8.6 4 Sudoeste 5 Oeste 0 -- -- 89
2020-11-23 01:00:00 9.1 0 Calma 3 Oeste 0 -- -- 87
2020-11-23 00:00:00 9.7 0 Calma 5 Sudoeste 0 -- -- 83
2020-11-22 23:00:00 10.2 4 Sudoeste 6 Oeste 0 -- -- 82
2020-11-22 22:00:00 10.6 3 Sudoeste 5 Sudoeste 0 -- -- 81
2020-11-22 21:00:00 11.1 0 Calma 6 Sudoeste 0 -- -- 80
2020-11-22 20:00:00 12.2 4 Sudoeste 6 Sudoeste 0 -- -- 75
2020-11-22 19:00:00 13.5 0 Calma 7 Sur 0 -- -- 69
2020-11-22 18:00:00 14.8 3 Sudeste 16 Sudeste 0 -- -- 65
2020-11-22 17:00:00 16.1 10 Sudeste 21 Sudeste 0 -- -- 59
2020-11-22 16:00:00 17.4 11 Sudeste 19 Sudeste 0 -- -- 56
2020-11-22 15:00:00 18.9 6 Sudeste 13 Este 0 -- -- 51
2020-11-22 14:00:00 18.2 4 Norte 12 Oeste 0 -- -- 51
2020-11-22 13:00:00 17.1 4 Oeste 13 Oeste 0 -- -- 57
2020-11-22 12:00:00 15.9 4 Norte 15 Noroeste 0 -- -- 64
2020-11-22 11:00:00 13.2 8 Oeste 15 Oeste 0 -- -- 76
2020-11-22 10:00:00 10.9 10 Oeste 16 Oeste 0 -- -- 83
2020-11-22 09:00:00 8.6 7 Oeste 15 Sudoeste 0 -- -- 90
2020-11-22 08:00:00 8.1 6 Oeste 15 Oeste 0 -- -- 90
2020-11-22 07:00:00 8.5 9 Oeste 14 Sudoeste 0 -- -- 92
2020-11-22 06:00:00 7.3 0 Calma 6 Nordeste 0 -- -- 92
2020-11-22 05:00:00 8 3 Nordeste 4 Nordeste 0 -- -- 92
2020-11-22 04:00:00 9 3 Oeste 9 Oeste 0 -- -- 88
2020-11-22 03:00:00 10 6 Oeste 13 Oeste 0 -- -- 87
2020-11-22 02:00:00 10.5 8 Sudoeste 14 Sudoeste 0 -- -- 86
2020-11-22 01:00:00 10.9 6 Oeste 12 Nordeste 0 -- -- 87
2020-11-22 00:00:00 11.9 0 Calma 9 Sudoeste 0 -- -- 82
2020-11-21 23:00:00 12.8 6 Sudoeste 9 Sudoeste 0 -- -- 80
2020-11-21 22:00:00 12.5 7 Sudoeste 9 Sudoeste 0 -- -- 79
2020-11-21 21:00:00 13.2 5 Sudoeste 8 Oeste 0 -- -- 76
2020-11-21 20:00:00 14.1 4 Este 9 Este 0 -- -- 72
2020-11-21 19:00:00 15.3 6 Este 14 Este 0 -- -- 67
2020-11-21 18:00:00 16.1 9 Este 21 Nordeste 0 -- -- 66
2020-11-21 17:00:00 17 12 Este 22 Este 0 -- -- 65
2020-11-21 16:00:00 17.7 13 Nordeste 22 Nordeste 0 -- -- 59
2020-11-21 15:00:00 18.4 13 Nordeste 23 Este 0 -- -- 59
2020-11-21 14:00:00 18.4 13 Nordeste 22 Nordeste 0 -- -- 61
2020-11-21 13:00:00 18.5 8 Nordeste 19 Nordeste 0 -- -- 58
2020-11-21 12:00:00 17.7 4 Oeste 12 Noroeste 0 -- -- 62
2020-11-21 11:00:00 15.4 5 Noroeste 10 Oeste 0 -- -- 73
2020-11-21 10:00:00 13 4 Oeste 7 Oeste 0 -- -- 84
2020-11-21 09:00:00 10.9 0 Calma 3 Norte 0 -- -- 94
2020-11-21 08:00:00 9.8 0 Calma 6 Sudoeste 0 -- -- 92
2020-11-21 07:00:00 10 0 Calma 6 Norte 0 -- -- 90
2020-11-21 06:00:00 10.2 0 Calma 3 Noroeste 0 -- -- 90
2020-11-21 05:00:00 10.7 0 Calma 6 Nordeste 0 -- -- 88
2020-11-21 04:00:00 10.8 0 Calma 5 Oeste 0 -- -- 87
2020-11-21 03:00:00 11 0 Calma 5 Norte 0 -- -- 87
2020-11-21 02:00:00 11.5 3 Oeste 5 Oeste 0 -- -- 88
2020-11-21 01:00:00 11.8 4 Oeste 8 Oeste 0 -- -- 88
2020-11-21 00:00:00 12 4 Oeste 8 Oeste 0 -- -- 86
2020-11-20 23:00:00 12.8 5 Sudoeste 8 Sudoeste 0 -- -- 85
2020-11-20 22:00:00 13.2 4 Sudoeste 5 Sudoeste 0 -- -- 82
2020-11-20 21:00:00 15.4 5 Este 13 Este 0 -- -- 73
2020-11-20 20:00:00 15.6 7 Este 15 Este 0 -- -- 74
2020-11-20 19:00:00 16.1 8 Este 21 Este 0 -- -- 70
2020-11-20 18:00:00 16.7 10 Este 26 Nordeste 0 -- -- 69
2020-11-20 17:00:00 17.6 16 Este 24 Nordeste 0 -- -- 70
2020-11-20 16:00:00 18.2 12 Este 26 Nordeste 0 -- -- 70
2020-11-20 15:00:00 18.5 17 Este 30 Este 0 -- -- 69
2020-11-20 14:00:00 18.5 16 Nordeste 32 Este 0 -- -- 72
2020-11-20 13:00:00 18.7 19 Nordeste 30 Este 0 -- -- 73
2020-11-20 12:00:00 17.5 3 Norte 9 Oeste 0 -- -- 69
2020-11-20 11:00:00 15.7 8 Oeste 13 Oeste 0 -- -- 78
2020-11-20 10:00:00 13.5 7 Noroeste 10 Oeste 0 -- -- 93
2020-11-20 09:00:00 11.4 3 Oeste 10 Sudoeste 0.2 -- -- 96
2020-11-20 08:00:00 10.7 6 Oeste 9 Oeste 0 -- -- 96
2020-11-20 07:00:00 10.5 3 Oeste 6 Oeste 0 -- -- 96
2020-11-20 06:00:00 10.8 3 Noroeste 9 Sudoeste 0 -- -- 95
2020-11-20 05:00:00 11.3 6 Sudoeste 10 Sudoeste 0 -- -- 95
2020-11-20 04:00:00 12.1 3 Oeste 9 Sudoeste 0 -- -- 94
2020-11-20 03:00:00 12.6 4 Oeste 12 Sudoeste 0 -- -- 95
2020-11-20 02:00:00 13.1 5 Oeste 12 Sudoeste 0 -- -- 94
2020-11-20 01:00:00 13.5 6 Sudoeste 10 Sudoeste 0 -- -- 94
2020-11-20 00:00:00 14.1 5 Sudoeste 7 Sudoeste 0 -- -- 94
2020-11-19 23:00:00 14.1 5 Sudoeste 6 Sudoeste 0 -- -- 93
2020-11-19 22:00:00 14.8 4 Sudoeste 4 Sudoeste 0 -- -- 93
2020-11-19 21:00:00 15.2 2 Sur 4 Sudeste 0 -- -- 91
2020-11-19 20:00:00 15.7 0 Calma 5 Oeste 0 -- -- 89
2020-11-19 19:00:00 16.8 0 Calma 9 Este 0 -- -- 83
2020-11-19 18:00:00 18.2 6 Sudeste 16 Este 0 -- -- 78
2020-11-19 17:00:00 19.3 10 Este 18 Este 0 -- -- 73
2020-11-19 16:00:00 21.2 9 Este 16 Nordeste 0 -- -- 58
2020-11-19 15:00:00 21.7 6 Norte 17 Noroeste 0 -- -- 61
2020-11-19 14:00:00 21.4 7 Noroeste 18 Oeste 0 -- -- 64
2020-11-19 13:00:00 19.8 8 Oeste 12 Oeste 0 -- -- 73
2020-11-19 12:00:00 18.3 7 Oeste 12 Oeste 0 -- -- 79
2020-11-19 11:00:00 17.4 8 Oeste 12 Oeste 0 -- -- 83
2020-11-19 10:00:00 16 7 Noroeste 10 Noroeste 0 -- -- 89
2020-11-19 09:00:00 14.3 5 Noroeste 11 Oeste 0 -- -- 95
2020-11-19 08:00:00 13.9 5 Oeste 11 Oeste 0 -- -- 96
2020-11-19 07:00:00 13.7 6 Oeste 12 Oeste 0 -- -- 96
2020-11-19 06:00:00 13.6 5 Sudoeste 11 Sudoeste 0 -- -- 96
2020-11-19 05:00:00 13.8 0 Calma 6 Oeste 0 -- -- 96
2020-11-19 04:00:00 13.6 3 Oeste 5 Oeste 0 -- -- 96
2020-11-19 03:00:00 13.6 0 Calma 2 Noroeste 0 -- -- 95
2020-11-19 02:00:00 13.7 0 Calma 8 Sudoeste 0 -- -- 95
2020-11-19 01:00:00 13.9 3 Sudoeste 6 Sudoeste 0 -- -- 94
2020-11-19 00:00:00 14 4 Sudoeste 5 Sudoeste 0 -- -- 92
2020-11-18 23:00:00 14.6 2 Sudoeste 5 Sudeste 0 -- -- 91
2020-11-18 22:00:00 15.4 3 Sudeste 3 Sudeste 0 -- -- 90
2020-11-18 21:00:00 16.8 3 Oeste 17 Sudeste 0 -- -- 86
2020-11-18 20:00:00 17.7 10 Sudeste 17 Sudeste 0 -- -- 86
2020-11-18 19:00:00 17.9 8 Sudeste 14 Sur 0 -- -- 86
2020-11-18 18:00:00 18.3 6 Sudeste 17 Sudeste 0 -- -- 84
2020-11-18 17:00:00 19.3 9 Sudeste 19 Sudeste 0 -- -- 79
2020-11-18 16:00:00 20.7 11 Sudeste 19 Este 0 -- -- 72
2020-11-18 15:00:00 20.9 9 Este 15 Este 0 -- -- 72
2020-11-18 14:00:00 20.6 6 Sudeste 12 Sudeste 0 -- -- 72
2020-11-18 13:00:00 20.2 6 Oeste 17 Oeste 0 -- -- 73
2020-11-18 12:00:00 18.9 10 Oeste 18 Oeste 0 -- -- 78
2020-11-18 11:00:00 18.1 11 Oeste 18 Oeste 0 -- -- 82
2020-11-18 10:00:00 17 10 Oeste 15 Oeste 0 -- -- 90
2020-11-18 09:00:00 16 4 Oeste 8 Oeste 0 -- -- 94
2020-11-18 08:00:00 15.5 0 Calma 5 Oeste 0 -- -- 93
2020-11-18 07:00:00 15.7 0 Calma 10 Oeste 0 -- -- 93
2020-11-18 06:00:00 16.1 2 Oeste 11 Sudoeste 0 -- -- 94
2020-11-18 05:00:00 15.9 6 Sudoeste 13 Oeste 0 -- -- 95
2020-11-18 04:00:00 15.9 6 Sudoeste 13 Oeste 0 -- -- 95
2020-11-18 03:00:00 15.8 9 Sudoeste 14 Sudoeste 0 -- -- 95
2020-11-18 02:00:00 16.1 5 Sudoeste 8 Sudoeste 0 -- -- 94
2020-11-18 01:00:00 16.3 5 Sudoeste 8 Sudoeste 0 -- -- 94
2020-11-18 00:00:00 16.4 0 Calma 6 Sur 0 -- -- 93
2020-11-17 23:00:00 17 4 Sudeste 7 Sudeste 0 -- -- 93
2020-11-17 22:00:00 17.7 0 Calma 9 Sudeste 0 -- -- 90
2020-11-17 21:00:00 18.3 2 Sur 8 Sudeste 0 -- -- 88
2020-11-17 20:00:00 18.5 0 Calma 6 Este 0 -- -- 90
2020-11-17 19:00:00 18.3 3 Nordeste 9 Este 0 -- -- 88
2020-11-17 18:00:00 19.1 4 Este 20 Sudeste 0 -- -- 85
2020-11-17 17:00:00 20 10 Sudeste 21 Este 0 -- -- 79
2020-11-17 16:00:00 21 11 Sudeste 24 Sudeste 0 -- -- 74
2020-11-17 15:00:00 22.1 11 Sudeste 22 Este 0 -- -- 67
2020-11-17 14:00:00 22.2 8 Este 14 Este 0 -- -- 68
2020-11-17 13:00:00 22.1 5 Sudeste 10 Sudoeste 0 -- -- 64
2020-11-17 12:00:00 21.4 4 Oeste 10 Noroeste 0 -- -- 68
2020-11-17 11:00:00 19.4 3 Noroeste 10 Oeste 0 -- -- 75
2020-11-17 10:00:00 17.2 7 Oeste 10 Oeste 0 -- -- 82
2020-11-17 09:00:00 15.4 3 Noroeste 8 Oeste 0 -- -- 89
2020-11-17 08:00:00 14.5 4 Oeste 6 Oeste 0 -- -- 91
2020-11-17 07:00:00 14.5 3 Noroeste 8 Oeste 0 -- -- 90
2020-11-17 06:00:00 15.1 5 Sudoeste 9 Sudoeste 0 -- -- 89
2020-11-17 05:00:00 15.9 4 Oeste 10 Oeste 0 -- -- 85
2020-11-17 04:00:00 16.6 0 Calma 5 Nordeste 0 -- -- 86
2020-11-17 03:00:00 17.1 0 Calma 6 Norte 0 -- -- 83
2020-11-17 02:00:00 17 4 Oeste 9 Sudoeste 0 -- -- 83
2020-11-17 01:00:00 16.7 5 Sudoeste 8 Sudoeste 0 -- -- 82
2020-11-17 00:00:00 17.5 3 Noroeste 7 Oeste 0 -- -- 79
2020-11-16 23:00:00 17.6 4 Oeste 5 Oeste 0 -- -- 81
2020-11-16 22:00:00 17.5 5 Sudoeste 8 Sudoeste 0 -- -- 82
2020-11-16 21:00:00 17.8 3 Oeste 11 Nordeste 0 -- -- 80
2020-11-16 20:00:00 18.8 8 Nordeste 17 Este 0 -- -- 80
2020-11-16 19:00:00 19.2 9 Nordeste 19 Este 0 -- -- 78
2020-11-16 18:00:00 19.8 11 Nordeste 33 Este 0 -- -- 73
2020-11-16 17:00:00 20.8 21 Este 43 Este 0 -- -- 72
2020-11-16 16:00:00 24 26 Nordeste 43 Este 0 -- -- 59
2020-11-16 15:00:00 27.2 12 Noroeste 27 Oeste 0 -- -- 45
2020-11-16 14:00:00 25.9 15 Oeste 36 Oeste 0 -- -- 51
2020-11-16 13:00:00 24.8 24 Oeste 33 Oeste 0 -- -- 53
2020-11-16 12:00:00 25.6 20 Noroeste 34 Noroeste 0 -- -- 52
2020-11-16 11:00:00 21.8 6 Oeste 10 Nordeste 0 -- -- 62
2020-11-16 10:00:00 19.4 5 Norte 20 Oeste 0 -- -- 71
2020-11-16 09:00:00 15.6 8 Oeste 11 Sudoeste 0 -- -- 83
2020-11-16 08:00:00 14 4 Oeste 5 Oeste 0 -- -- 89
2020-11-16 07:00:00 14.2 0 Calma 5 Oeste 0 -- -- 88
2020-11-16 06:00:00 15.2 3 Norte 12 Sudoeste 0 -- -- 85
2020-11-16 05:00:00 15.4 5 Oeste 9 Oeste 0 -- -- 88
2020-11-16 04:00:00 15.2 2 Noroeste 5 Nordeste 0 -- -- 89
2020-11-16 03:00:00 15.3 0 Calma 6 Sudeste 0 -- -- 88
2020-11-16 02:00:00 15.4 4 Oeste 5 Oeste 0 -- -- 88
2020-11-16 01:00:00 15.8 2 Nordeste 5 Oeste 0 -- -- 81
2020-11-16 00:00:00 17.4 4 Sudoeste 11 Sudeste 0 -- -- 75
2020-11-15 23:00:00 17.7 6 Sudoeste 11 Sudoeste 0 -- -- 73
2020-11-15 22:00:00 18.5 0 Calma 12 Sur 0 -- -- 69
2020-11-15 21:00:00 19.7 7 Sur 27 Sur 0 -- -- 66
2020-11-15 20:00:00 20.3 15 Sur 32 Sur 0 -- -- 65
2020-11-15 19:00:00 20.5 15 Sur 26 Sur 0 -- -- 66
2020-11-15 18:00:00 22 11 Sur 23 Sudoeste 0 -- -- 60
2020-11-15 17:00:00 23.1 14 Sur 27 Sur 0 -- -- 58
2020-11-15 16:00:00 24.3 13 Sur 27 Sudeste 0 -- -- 57
2020-11-15 15:00:00 25.9 11 Sudoeste 20 Sudoeste 0 -- -- 42
2020-11-15 14:00:00 24.8 10 Oeste 23 Sudoeste 0 -- -- 48
2020-11-15 13:00:00 23.6 10 Sudoeste 23 Oeste 0 -- -- 54
2020-11-15 12:00:00 21.7 13 Oeste 23 Oeste 0 -- -- 59
2020-11-15 11:00:00 19.6 9 Oeste 16 Sudoeste 0 -- -- 72
2020-11-15 10:00:00 17.7 6 Oeste 16 Oeste 0 -- -- 84
2020-11-15 09:00:00 15.1 5 Oeste 13 Sudoeste 0 -- -- 95
2020-11-15 08:00:00 14.4 5 Oeste 10 Sudoeste 0 -- -- 95
2020-11-15 07:00:00 14.1 4 Oeste 8 Oeste 0 -- -- 93
2020-11-15 06:00:00 15.5 2 Noroeste 14 Sudoeste 0 -- -- 92
2020-11-15 05:00:00 16.3 7 Sudoeste 14 Sudoeste 0 -- -- 93
2020-11-15 04:00:00 16.4 6 Sudoeste 14 Sudoeste 0 -- -- 93
2020-11-15 03:00:00 16.3 6 Sudoeste 10 Sudoeste 0 -- -- 93
2020-11-15 02:00:00 16.3 2 Sudoeste 6 Sudoeste 0 -- -- 91
2020-11-15 01:00:00 17.3 3 Sudoeste 14 Sur 0 -- -- 89
2020-11-15 00:00:00 17.7 6 Sur 15 Sur 0 -- -- 89
2020-11-14 23:00:00 17.9 8 Sur 15 Sur 0 -- -- 89
2020-11-14 22:00:00 18 9 Sur 18 Sur 0 -- -- 89
2020-11-14 21:00:00 18.2 10 Sur 17 Sur 0 -- -- 90
2020-11-14 20:00:00 18.1 8 Sur 14 Sur 0 -- -- 89
2020-11-14 19:00:00 18.1 9 Sur 15 Sur 0 -- -- 88
2020-11-14 18:00:00 18.4 7 Sur 14 Sudeste 0 -- -- 85
2020-11-14 17:00:00 19.2 6 Sudeste 12 Sur 0 -- -- 82
2020-11-14 16:00:00 19.4 5 Sudeste 11 Sur 0 -- -- 82
2020-11-14 15:00:00 19.6 0 Calma 5 Noroeste 0.6 -- -- 83
2020-11-14 14:00:00 19.6 3 Noroeste 11 Oeste 0 -- -- 78
2020-11-14 13:00:00 19.1 6 Oeste 12 Oeste 0 -- -- 81
2020-11-14 12:00:00 18.8 7 Oeste 11 Oeste 0 -- -- 83
2020-11-14 11:00:00 18.3 4 Oeste 9 Oeste 0 -- -- 85
2020-11-14 10:00:00 16.6 0 Calma 4 Sudoeste 0 -- -- 93
2020-11-14 09:00:00 15.8 2 Oeste 7 Oeste 0 -- -- 93
2020-11-14 08:00:00 15.4 0 Calma 6 Sudoeste 0 -- -- 93
2020-11-14 07:00:00 15.2 4 Sudoeste 9 Oeste 0 -- -- 94
2020-11-14 06:00:00 15.2 0 Calma 4 Sudoeste 0 -- -- 93
2020-11-14 05:00:00 15.3 3 Oeste 4 Oeste 0 -- -- 92
2020-11-14 04:00:00 15.7 2 Oeste 4 Oeste 0 -- -- 91
2020-11-14 03:00:00 16.3 3 Oeste 6 Sudoeste 0 -- -- 90
2020-11-14 02:00:00 16.7 5 Sudoeste 6 Sudoeste 0 -- -- 90
2020-11-14 01:00:00 16.7 4 Sudoeste 6 Sudoeste 0 -- -- 91
2020-11-14 00:00:00 16.5 5 Sudoeste 6 Sudoeste 0 -- -- 90
2020-11-13 23:00:00 16.6 4 Sudoeste 6 Oeste 0 -- -- 88
2020-11-13 22:00:00 17.8 4 Sur 8 Sur 0 -- -- 87
2020-11-13 21:00:00 17.7 4 Sur 8 Sudeste 0 -- -- 87
2020-11-13 20:00:00 17.8 3 Sudeste 7 Sudeste 0 -- -- 86
2020-11-13 19:00:00 18 2 Sudeste 12 Este 0 -- -- 84
2020-11-13 18:00:00 18.9 8 Este 20 Este 0 -- -- 80
2020-11-13 17:00:00 19.7 9 Este 24 Este 0 -- -- 74
2020-11-13 16:00:00 20.8 15 Este 25 Este 0 -- -- 65
2020-11-13 15:00:00 22.3 9 Este 18 Este 0 -- -- 57
2020-11-13 14:00:00 22.4 9 Nordeste 21 Este 0 -- -- 55
2020-11-13 13:00:00 22.2 7 Nordeste 17 Norte 0 -- -- 55
2020-11-13 12:00:00 20.5 9 Oeste 21 Oeste 0 -- -- 64
2020-11-13 11:00:00 18.2 10 Oeste 20 Oeste 0 -- -- 70
2020-11-13 10:00:00 17.1 9 Oeste 13 Oeste 0 -- -- 74
2020-11-13 09:00:00 15.1 4 Oeste 6 Oeste 0 -- -- 83
2020-11-13 08:00:00 15.1 4 Oeste 8 Sudoeste 0 -- -- 83
2020-11-13 07:00:00 15.6 4 Oeste 8 Oeste 0 -- -- 80
2020-11-13 06:00:00 15.6 5 Oeste 7 Oeste 0 -- -- 78
2020-11-13 05:00:00 15.6 4 Oeste 6 Oeste 0 -- -- 78
2020-11-13 04:00:00 15.8 4 Oeste 6 Oeste 0 -- -- 77
2020-11-13 03:00:00 16.4 0 Calma 8 Noroeste 0 -- -- 76
2020-11-13 02:00:00 16.5 3 Sur 8 Sur 0 -- -- 76
2020-11-13 01:00:00 16.2 2 Noroeste 6 Noroeste 0 -- -- 75
2020-11-13 00:00:00 16.2 0 Calma 7 Norte 0 -- -- 75
2020-11-12 23:00:00 16.3 3 Norte 6 Oeste 0 -- -- 79
2020-11-12 22:00:00 16.3 3 Oeste 5 Oeste 0 -- -- 85
2020-11-12 21:00:00 16.1 0 Calma 6 Norte 0 -- -- 89
2020-11-12 20:00:00 17.1 3 Noroeste 7 Nordeste 0 -- -- 84
2020-11-12 19:00:00 17.8 7 Nordeste 12 Este 0 -- -- 83
2020-11-12 18:00:00 18 8 Nordeste 23 Nordeste 0 -- -- 84
2020-11-12 17:00:00 19 17 Nordeste 28 Este 0 -- -- 78
2020-11-12 16:00:00 19.5 14 Nordeste 25 Este 0 -- -- 75
2020-11-12 15:00:00 20.3 13 Este 23 Nordeste 0 -- -- 62
2020-11-12 14:00:00 20.8 12 Nordeste 20 Nordeste 0 -- -- 56
2020-11-12 13:00:00 20.1 5 Nordeste 11 Este 0 -- -- 59
2020-11-12 12:00:00 17.8 7 Noroeste 14 Oeste 0 -- -- 64
2020-11-12 11:00:00 15.5 9 Noroeste 15 Oeste 0 -- -- 78
2020-11-12 10:00:00 13.4 9 Oeste 16 Oeste 0 -- -- 90
2020-11-12 09:00:00 11.7 8 Oeste 13 Oeste 0 -- -- 95
2020-11-12 08:00:00 10.1 5 Oeste 9 Oeste 0 -- -- 95
2020-11-12 07:00:00 10 4 Oeste 10 Noroeste 0.2 -- -- 95
2020-11-12 06:00:00 11.1 8 Oeste 12 Sudoeste 0 -- -- 95
2020-11-12 05:00:00 11.1 3 Oeste 9 Oeste 0 -- -- 95
2020-11-12 04:00:00 11.6 5 Oeste 8 Oeste 0 -- -- 95
2020-11-12 03:00:00 11.8 5 Oeste 10 Oeste 0 -- -- 95
2020-11-12 02:00:00 12.2 4 Oeste 6 Oeste 0 -- -- 94
2020-11-12 01:00:00 12.6 3 Sudoeste 8 Oeste 0 -- -- 94
2020-11-12 00:00:00 13 3 Sudoeste 8 Sudoeste 0 -- -- 93
2020-11-11 23:00:00 13.3 0 Calma 5 Sudeste 0 -- -- 94
2020-11-11 22:00:00 14 4 Oeste 6 Oeste 0 -- -- 92
2020-11-11 21:00:00 14.5 3 Este 6 Noroeste 0 -- -- 92
2020-11-11 20:00:00 14.9 3 Oeste 4 Oeste 0 -- -- 90
2020-11-11 19:00:00 16 0 Calma 9 Sudeste 0 -- -- 86
2020-11-11 18:00:00 17.5 5 Este 16 Este 0 -- -- 81
2020-11-11 17:00:00 18.6 9 Este 19 Este 0 -- -- 75
2020-11-11 16:00:00 19.5 13 Este 18 Este 0 -- -- 67
2020-11-11 15:00:00 20.4 11 Este 18 Nordeste 0 -- -- 65
2020-11-11 14:00:00 20.5 9 Nordeste 19 Este 0 -- -- 62
2020-11-11 13:00:00 20.6 7 Nordeste 13 Nordeste 0 -- -- 63
2020-11-11 12:00:00 19.3 5 Norte 13 Norte 0 -- -- 67
2020-11-11 11:00:00 16.7 10 Oeste 16 Oeste 0 -- -- 74
2020-11-11 10:00:00 14.3 10 Oeste 16 Oeste 0 -- -- 89
2020-11-11 09:00:00 12.2 4 Noroeste 11 Oeste 0 -- -- 95
2020-11-11 08:00:00 11.8 5 Oeste 8 Oeste 0 -- -- 95
2020-11-11 07:00:00 11.7 4 Oeste 10 Noroeste 0 -- -- 95
2020-11-11 06:00:00 11.2 2 Oeste 8 Oeste 0 -- -- 95
2020-11-11 05:00:00 12.1 5 Oeste 8 Oeste 0 -- -- 95
2020-11-11 04:00:00 12.5 0 Calma 5 Oeste 0 -- -- 95
2020-11-11 03:00:00 12.9 0 Calma 5 Oeste 0 -- -- 94
2020-11-11 02:00:00 13.4 4 Oeste 9 Sudoeste 0 -- -- 94
2020-11-11 01:00:00 13.8 6 Sudoeste 9 Oeste 0 -- -- 93
2020-11-11 00:00:00 14.1 3 Oeste 6 Oeste 0 -- -- 91
2020-11-10 23:00:00 15.1 4 Sudoeste 8 Sudoeste 0 -- -- 91
2020-11-10 22:00:00 15.5 6 Sudoeste 7 Sudoeste 0 -- -- 89
2020-11-10 21:00:00 16.9 3 Norte 12 Nordeste 0 -- -- 83
2020-11-10 20:00:00 17.7 6 Este 15 Nordeste 0 -- -- 84
2020-11-10 19:00:00 17.7 7 Nordeste 12 Este 0 -- -- 83
2020-11-10 18:00:00 18.4 8 Este 17 Este 0 -- -- 80
2020-11-10 17:00:00 19.4 11 Este 24 Este 0 -- -- 72
2020-11-10 16:00:00 20.1 13 Este 26 Este 0 -- -- 69
2020-11-10 15:00:00 21.1 14 Sudeste 24 Sudeste 0 -- -- 66
2020-11-10 14:00:00 21.8 8 Este 16 Este 0 -- -- 65
2020-11-10 13:00:00 20.5 8 Nordeste 15 Nordeste 0 -- -- 71
2020-11-10 12:00:00 20.7 4 Nordeste 11 Nordeste 0 -- -- 67
2020-11-10 11:00:00 18.9 4 Noroeste 10 Noroeste 0 -- -- 66
2020-11-10 10:00:00 16.9 5 Oeste 9 Noroeste 0 -- -- 75
2020-11-10 09:00:00 14.1 2 Noroeste 6 Oeste 0 -- -- 90
2020-11-10 08:00:00 12.7 4 Oeste 7 Oeste 0 -- -- 91
2020-11-10 07:00:00 12.8 4 Oeste 8 Oeste 0 -- -- 89
2020-11-10 06:00:00 13.3 5 Oeste 12 Oeste 0 -- -- 89
2020-11-10 05:00:00 13 6 Oeste 10 Oeste 0 -- -- 93
2020-11-10 04:00:00 13.2 0 Calma 7 Oeste 0 -- -- 90
2020-11-10 03:00:00 14.5 5 Oeste 11 Sudoeste 0 -- -- 90
2020-11-10 02:00:00 14.8 5 Sudoeste 12 Sudoeste 0 -- -- 90
2020-11-10 01:00:00 15.6 5 Sudoeste 10 Sudoeste 0 -- -- 92
2020-11-10 00:00:00 15.5 6 Oeste 9 Oeste 0 -- -- 92
2020-11-09 23:00:00 16 2 Noroeste 10 Este 0 -- -- 92
2020-11-09 22:00:00 15.2 2 Oeste 8 Sudoeste 0 -- -- 91
2020-11-09 21:00:00 15.7 5 Sudoeste 6 Sudoeste 0 -- -- 88
2020-11-09 20:00:00 16.9 4 Sudeste 8 Este 0 -- -- 85
2020-11-09 19:00:00 17.9 3 Sudeste 15 Sudeste 0 -- -- 81
2020-11-09 18:00:00 19.3 9 Sudeste 20 Sudeste 0 -- -- 76
2020-11-09 17:00:00 20.4 12 Sudeste 22 Sudeste 0 -- -- 71
2020-11-09 16:00:00 21.3 14 Sudeste 23 Sur 0 -- -- 66
2020-11-09 15:00:00 22.5 12 Sudeste 19 Sudeste 0 -- -- 59
2020-11-09 14:00:00 22.7 7 Sudeste 23 Sur 0 -- -- 59
2020-11-09 13:00:00 20.6 5 Oeste 12 Oeste 0 -- -- 64
2020-11-09 12:00:00 18.8 8 Oeste 15 Oeste 0 -- -- 72
2020-11-09 11:00:00 16.6 9 Oeste 14 Oeste 0 -- -- 83
2020-11-09 10:00:00 14.3 6 Oeste 9 Oeste 0 -- -- 95
2020-11-09 09:00:00 13.6 4 Oeste 9 Oeste 0 -- -- 96
2020-11-09 08:00:00 12.5 3 Oeste 5 Oeste 0.2 -- -- 96
2020-11-09 07:00:00 12.7 3 Noroeste 10 Oeste 0 -- -- 95
2020-11-09 06:00:00 13.5 4 Oeste 9 Oeste 0 -- -- 95
2020-11-09 05:00:00 13.2 3 Oeste 8 Oeste 0 -- -- 95
2020-11-09 04:00:00 14.4 7 Sudoeste 11 Sudoeste 0 -- -- 95
2020-11-09 03:00:00 14.2 5 Sudoeste 9 Sudoeste 0 -- -- 95
2020-11-09 02:00:00 14 5 Sudoeste 8 Sudoeste 0 -- -- 94
2020-11-09 01:00:00 14.4 5 Sudoeste 7 Sudoeste 0 -- -- 94
2020-11-09 00:00:00 14.8 3 Oeste 5 Sudoeste 0 -- -- 94
2020-11-08 23:00:00 15.5 3 Sudoeste 5 Sur 0 -- -- 94
2020-11-08 22:00:00 15.5 0 Calma 4 Norte 0 -- -- 93
2020-11-08 21:00:00 15.8 0 Calma 2 Oeste 0 -- -- 92
2020-11-08 20:00:00 16.3 0 Calma 3 Sudeste 0 -- -- 90
2020-11-08 19:00:00 17.1 0 Calma 4 Este 0 -- -- 87
2020-11-08 18:00:00 18.6 4 Este 13 Este 0 -- -- 81
2020-11-08 17:00:00 19.4 9 Este 15 Nordeste 0 -- -- 78
2020-11-08 16:00:00 20.5 9 Este 15 Este 0 -- -- 72
2020-11-08 15:00:00 20.9 9 Este 22 Este 0 -- -- 70
2020-11-08 14:00:00 20.6 11 Este 23 Nordeste 0 -- -- 70
2020-11-08 13:00:00 21.4 11 Este 20 Nordeste 0 -- -- 65
2020-11-08 12:00:00 20.3 6 Oeste 14 Oeste 0 -- -- 64
2020-11-08 11:00:00 17.2 9 Oeste 16 Oeste 0 -- -- 66
2020-11-08 10:00:00 15 8 Oeste 12 Oeste 0 -- -- 73
2020-11-08 09:00:00 12.8 5 Oeste 8 Oeste 0 -- -- 81
2020-11-08 08:00:00 11.5 3 Oeste 9 Oeste 0 -- -- 83
2020-11-08 07:00:00 12.1 5 Oeste 13 Oeste 0 -- -- 80
2020-11-08 06:00:00 12.5 6 Oeste 10 Oeste 0 -- -- 81
2020-11-08 05:00:00 12.6 7 Oeste 13 Sudoeste 0 -- -- 81
2020-11-08 04:00:00 13.1 8 Oeste 13 Sudoeste 0 -- -- 79
2020-11-08 03:00:00 13.9 4 Oeste 9 Sudoeste 0 -- -- 75
2020-11-08 02:00:00 14.8 3 Oeste 5 Oeste 0 -- -- 66
2020-11-08 01:00:00 15.2 3 Sudeste 9 Este 0 -- -- 72
2020-11-08 00:00:00 15.7 3 Nordeste 10 Sudeste 0 -- -- 74
2020-11-07 23:00:00 16.2 2 Sur 6 Sudeste 0 -- -- 73
2020-11-07 22:00:00 16.8 4 Sudoeste 9 Sudeste 0 -- -- 74
2020-11-07 21:00:00 17.5 5 Sudoeste 7 Oeste 0 -- -- 78
2020-11-07 20:00:00 18.9 2 Norte 18 Sur 0 -- -- 72
2020-11-07 19:00:00 20.1 4 Sudeste 16 Sur 0 -- -- 69
2020-11-07 18:00:00 21.3 8 Sur 17 Sudoeste 0 -- -- 65
2020-11-07 17:00:00 22.7 14 Sudoeste 31 Sudoeste 0 -- -- 59
2020-11-07 16:00:00 23.6 14 Sur 33 Sur 0 -- -- 57
2020-11-07 15:00:00 24.4 15 Sur 35 Sudoeste 0 -- -- 52
2020-11-07 14:00:00 24.2 15 Sur 35 Sudoeste 0 -- -- 53
2020-11-07 13:00:00 23.9 15 Sudoeste 37 Sudoeste 0 -- -- 54
2020-11-07 12:00:00 23 12 Sur 25 Sudoeste 0 -- -- 58
2020-11-07 11:00:00 19.8 6 Oeste 15 Oeste 0 -- -- 70
2020-11-07 10:00:00 19.2 9 Sur 16 Sudoeste 0 -- -- 69
2020-11-07 09:00:00 16.7 2 Sudoeste 16 Sur 0 -- -- 80
2020-11-07 08:00:00 15.9 3 Sudeste 13 Sudeste 0 -- -- 87
2020-11-07 07:00:00 16.8 5 Sudoeste 42 Oeste 0.4 -- -- 82
2020-11-07 06:00:00 19.8 27 Oeste 57 Oeste 0 -- -- 63
2020-11-07 05:00:00 21 10 Sudoeste 24 Sur 0 -- -- 70
2020-11-07 04:00:00 20.9 8 Sudeste 13 Sudeste 0 -- -- 70
2020-11-07 03:00:00 21.1 6 Sudeste 9 Sudeste 0 -- -- 63
2020-11-07 02:00:00 21.2 4 Sudeste 29 Este 0 -- -- 72
2020-11-07 01:00:00 21.6 17 Nordeste 34 Este 0 -- -- 73
2020-11-07 00:00:00 21.7 24 Este 41 Este 0 -- -- 73
2020-11-06 23:00:00 21.6 20 Este 38 Nordeste 0 -- -- 74
2020-11-06 22:00:00 22 21 Este 39 Nordeste 0 -- -- 70
2020-11-06 21:00:00 22.2 19 Este 33 Este 0 -- -- 66
2020-11-06 20:00:00 21.7 17 Nordeste 30 Nordeste 0 -- -- 69
2020-11-06 19:00:00 21.3 18 Nordeste 34 Nordeste 0 -- -- 73
2020-11-06 18:00:00 21.2 18 Nordeste 33 Nordeste 0 -- -- 77
2020-11-06 17:00:00 21.5 19 Nordeste 38 Nordeste 0 -- -- 77
2020-11-06 16:00:00 21.8 21 Nordeste 42 Nordeste 0 -- -- 76
2020-11-06 15:00:00 22.6 23 Nordeste 48 Nordeste 0 -- -- 75
2020-11-06 14:00:00 22.2 24 Nordeste 45 Nordeste 0 -- -- 77
2020-11-06 13:00:00 22.2 26 Nordeste 49 Nordeste 0 -- -- 78
2020-11-06 12:00:00 22.5 24 Nordeste 44 Nordeste 0 -- -- 75
2020-11-06 11:00:00 21.6 25 Nordeste 41 Este 0 -- -- 78
2020-11-06 10:00:00 21.5 23 Nordeste 41 Nordeste 0 -- -- 78
2020-11-06 09:00:00 19.1 3 Noroeste 19 Nordeste 0 -- -- 83
2020-11-06 08:00:00 19.6 12 Nordeste 21 Nordeste 0 -- -- 86
2020-11-06 07:00:00 18.4 2 Norte 10 Norte 0 -- -- 86
2020-11-06 06:00:00 18.2 4 Norte 14 Nordeste 0 -- -- 84
2020-11-06 05:00:00 18 4 Oeste 13 Sudoeste 0 -- -- 84
2020-11-06 04:00:00 19.4 4 Oeste 22 Nordeste 0 -- -- 80
2020-11-06 03:00:00 20.1 13 Nordeste 24 Nordeste 0 -- -- 83
2020-11-06 02:00:00 19.8 12 Nordeste 24 Nordeste 0 -- -- 83
2020-11-06 01:00:00 19.5 6 Noroeste 13 Nordeste 0 -- -- 84
2020-11-06 00:00:00 20 10 Nordeste 24 Nordeste 0 -- -- 84
2020-11-05 23:00:00 19.7 8 Nordeste 26 Nordeste 0 -- -- 87
2020-11-05 22:00:00 19.5 13 Nordeste 23 Este 0 -- -- 89
2020-11-05 21:00:00 19.7 14 Nordeste 31 Nordeste 0 -- -- 90
2020-11-05 20:00:00 19.6 14 Nordeste 32 Este 0 -- -- 89
2020-11-05 19:00:00 19.7 17 Nordeste 26 Este 0 -- -- 90
2020-11-05 18:00:00 19.8 13 Nordeste 26 Nordeste 0 -- -- 89
2020-11-05 17:00:00 20 18 Nordeste 33 Nordeste 0 -- -- 89
2020-11-05 16:00:00 20.6 19 Nordeste 38 Nordeste 0.2 -- -- 84
2020-11-05 15:00:00 20.9 21 Nordeste 38 Este 0 -- -- 85
2020-11-05 14:00:00 20.8 22 Este 49 Nordeste 0 -- -- 83
2020-11-05 13:00:00 21.5 26 Este 54 Nordeste 0 -- -- 79
2020-11-05 12:00:00 21.9 26 Nordeste 52 Nordeste 0 -- -- 79
2020-11-05 11:00:00 20.3 25 Nordeste 43 Nordeste 0 -- -- 86
2020-11-05 10:00:00 19.7 21 Nordeste 52 Nordeste 0 -- -- 87
2020-11-05 09:00:00 19.5 30 Nordeste 47 Nordeste 0 -- -- 86
2020-11-05 08:00:00 19.1 27 Nordeste 56 Nordeste 0 -- -- 86
2020-11-05 07:00:00 18.7 30 Nordeste 53 Nordeste 0 -- -- 86
2020-11-05 06:00:00 19 30 Nordeste 52 Nordeste 0 -- -- 83
2020-11-05 05:00:00 18.9 27 Nordeste 52 Este 0 -- -- 79
2020-11-05 04:00:00 18.9 31 Nordeste 49 Nordeste 0 -- -- 79
2020-11-05 03:00:00 18.7 27 Nordeste 48 Este 0 -- -- 78
2020-11-05 02:00:00 18.9 23 Nordeste 39 Nordeste 0 -- -- 81
2020-11-05 01:00:00 19.5 18 Nordeste 33 Este 0 -- -- 84
2020-11-05 00:00:00 18.5 13 Nordeste 23 Nordeste 0 -- -- 86
2020-11-04 23:00:00 17.6 3 Oeste 13 Norte 0 -- -- 71
2020-11-04 22:00:00 18.3 6 Norte 14 Nordeste 0 -- -- 70
2020-11-04 21:00:00 17.7 8 Nordeste 14 Nordeste 0 -- -- 68
2020-11-04 20:00:00 17.6 3 Sudoeste 14 Nordeste 0 -- -- 69
2020-11-04 19:00:00 18.2 10 Nordeste 21 Norte 0 -- -- 64
2020-11-04 18:00:00 19.4 15 Nordeste 32 Este 0 -- -- 69
2020-11-04 17:00:00 19.7 19 Nordeste 38 Nordeste 0 -- -- 68
2020-11-04 16:00:00 20.2 25 Nordeste 37 Nordeste 0 -- -- 66
2020-11-04 15:00:00 20.6 22 Nordeste 37 Nordeste 0 -- -- 68
2020-11-04 14:00:00 20.1 20 Este 31 Nordeste 0 -- -- 73
2020-11-04 13:00:00 20.7 12 Este 26 Nordeste 0 -- -- 73
2020-11-04 12:00:00 20.5 12 Este 23 Este 0 -- -- 75
2020-11-04 11:00:00 20.5 9 Nordeste 17 Nordeste 0 -- -- 73
2020-11-04 10:00:00 18.9 3 Nordeste 7 Norte 0 -- -- 79
2020-11-04 09:00:00 16.6 0 Calma 9 Sudeste 0 -- -- 88
2020-11-04 08:00:00 15.2 3 Oeste 9 Sudoeste 0.4 -- -- 91
2020-11-04 07:00:00 14.4 5 Oeste 7 Oeste 0 -- -- 93
2020-11-04 06:00:00 14 3 Oeste 6 Oeste 0 -- -- 93
2020-11-04 05:00:00 14.5 3 Oeste 5 Sudoeste 0 -- -- 92
2020-11-04 04:00:00 15.4 0 Calma 8 Oeste 0 -- -- 89
2020-11-04 03:00:00 16.5 4 Oeste 12 Nordeste 0 -- -- 87
2020-11-04 02:00:00 18.2 9 Nordeste 23 Nordeste 0 -- -- 84
2020-11-04 01:00:00 18.4 11 Nordeste 25 Este 0 -- -- 83
2020-11-04 00:00:00 18.4 11 Este 24 Nordeste 0 -- -- 84
2020-11-03 23:00:00 18.5 14 Nordeste 28 Nordeste 0 -- -- 84
2020-11-03 22:00:00 18.9 19 Nordeste 33 Este 0 -- -- 82
2020-11-03 21:00:00 19 15 Nordeste 37 Este 0 -- -- 81
2020-11-03 20:00:00 19.4 20 Este 35 Este 0 -- -- 78
2020-11-03 19:00:00 19.4 12 Este 28 Nordeste 0 -- -- 80
2020-11-03 18:00:00 19.4 7 Este 15 Nordeste 0 -- -- 81
2020-11-03 17:00:00 20.1 8 Este 18 Este 0 -- -- 74
2020-11-03 16:00:00 21 9 Este 18 Este 0 -- -- 70
2020-11-03 15:00:00 21.4 10 Este 20 Este 0 -- -- 68
2020-11-03 14:00:00 21.4 11 Este 22 Este 0 -- -- 69
2020-11-03 13:00:00 21 9 Este 21 Este 0 -- -- 69
2020-11-03 12:00:00 20.1 12 Nordeste 21 Nordeste 0 -- -- 77
2020-11-03 11:00:00 17.1 5 Oeste 9 Oeste 0 -- -- 91
2020-11-03 10:00:00 15.1 5 Oeste 9 Oeste 0 -- -- 97
2020-11-03 09:00:00 14.3 6 Oeste 9 Oeste 0 -- -- 97
2020-11-03 08:00:00 14.2 5 Oeste 8 Oeste 0 -- -- 97
2020-11-03 07:00:00 13.9 4 Oeste 6 Norte 0 -- -- 97
2020-11-03 06:00:00 13.9 4 Oeste 10 Oeste 0 -- -- 97
2020-11-03 05:00:00 14.4 7 Oeste 10 Oeste 0 -- -- 96
2020-11-03 04:00:00 15 5 Oeste 10 Oeste 0 -- -- 96
2020-11-03 03:00:00 15.5 3 Noroeste 8 Oeste 0 -- -- 96
2020-11-03 02:00:00 15.3 0 Calma 3 Sudoeste 0 -- -- 96
2020-11-03 01:00:00 14.8 0 Calma 5 Oeste 0.2 -- -- 95
2020-11-03 00:00:00 14 0 Calma 6 Sudoeste 0 -- -- 95
2020-11-02 23:00:00 14.9 0 Calma 7 Este 0 -- -- 94
2020-11-02 22:00:00 15.6 5 Este 6 Este 0 -- -- 94
2020-11-02 21:00:00 15.9 2 Este 6 Sudeste 0 -- -- 92
2020-11-02 20:00:00 16.4 3 Sudeste 7 Este 0 -- -- 90
2020-11-02 19:00:00 17.2 2 Nordeste 5 Este 0 -- -- 87
2020-11-02 18:00:00 18.9 3 Este 16 Sudeste 0 -- -- 81
2020-11-02 17:00:00 20.3 9 Sudeste 19 Sudeste 0 -- -- 76
2020-11-02 16:00:00 21.2 10 Sudeste 24 Sur 0 -- -- 72
2020-11-02 15:00:00 21.2 14 Sudeste 26 Sudeste 0 -- -- 71
2020-11-02 14:00:00 21.1 16 Sudeste 24 Sudeste 0 -- -- 68
2020-11-02 13:00:00 21.7 12 Sudeste 21 Sudeste 0 -- -- 65
2020-11-02 12:00:00 20.1 5 Oeste 13 Oeste 0 -- -- 61
2020-11-02 11:00:00 16.3 5 Oeste 15 Oeste 0 -- -- 94
2020-11-02 10:00:00 13.5 5 Oeste 10 Sudoeste 0 -- -- 97
2020-11-02 09:00:00 13.7 5 Oeste 10 Oeste 0 -- -- 97
2020-11-02 08:00:00 14 7 Oeste 10 Oeste 0 -- -- 96
2020-11-02 07:00:00 14.7 3 Oeste 6 Oeste 0 -- -- 97
2020-11-02 06:00:00 15.1 3 Oeste 5 Oeste 0 -- -- 97
2020-11-02 05:00:00 15.3 3 Noroeste 5 Noroeste 0 -- -- 96
2020-11-02 04:00:00 15.4 0 Calma 6 Noroeste 0.2 -- -- 96
2020-11-02 03:00:00 15.5 4 Oeste 8 Oeste 0 -- -- 96
2020-11-02 02:00:00 15.7 4 Oeste 9 Sudoeste 0 -- -- 96
2020-11-02 01:00:00 15.6 5 Sudoeste 8 Sudoeste 0 -- -- 95
2020-11-02 00:00:00 15 4 Sudoeste 8 Sudoeste 0 -- -- 95
2020-11-01 23:00:00 14.7 4 Sudoeste 6 Sudoeste 0 -- -- 94
2020-11-01 22:00:00 15.3 5 Sudoeste 6 Sudoeste 0 -- -- 92
2020-11-01 21:00:00 16.2 0 Calma 4 Sudeste 0 -- -- 92
2020-11-01 20:00:00 16.8 3 Este 6 Sudeste 0 -- -- 89
2020-11-01 19:00:00 18.1 5 Sudeste 9 Este 0 -- -- 85
2020-11-01 18:00:00 19.8 5 Sudeste 9 Sudeste 0 -- -- 74
2020-11-01 17:00:00 21.7 5 Sudeste 15 Sudeste 0 -- -- 66
2020-11-01 16:00:00 22.6 6 Sudeste 19 Sudeste 0 -- -- 59
2020-11-01 15:00:00 22.2 12 Sudeste 18 Sudeste 0 -- -- 65
2020-11-01 14:00:00 22.5 9 Sudeste 17 Este 0 -- -- 60
2020-11-01 13:00:00 22.5 7 Nordeste 14 Nordeste 0 -- -- 60
2020-11-01 12:00:00 21.1 4 Noroeste 9 Norte 0 -- -- 62
2020-11-01 11:00:00 18.4 2 Oeste 7 Oeste 0 -- -- 70
2020-11-01 10:00:00 15.5 5 Oeste 8 Oeste 0 -- -- 82
2020-11-01 09:00:00 13 3 Sudoeste 7 Sudoeste 0 -- -- 94
2020-11-01 08:00:00 11.7 5 Sudoeste 7 Sudoeste 0 -- -- 95
2020-11-01 07:00:00 11.8 0 Calma 8 Sudoeste 0 -- -- 95
2020-11-01 06:00:00 12.2 4 Oeste 6 Sudeste 0 -- -- 95
2020-11-01 05:00:00 12.4 4 Sudoeste 8 Sudoeste 0 -- -- 94
2020-11-01 04:00:00 12.9 4 Oeste 9 Sur 0 -- -- 94
2020-11-01 03:00:00 13.5 4 Oeste 6 Sur 0 -- -- 95
2020-11-01 02:00:00 14 0 Calma 4 Noroeste 0 -- -- 95
2020-11-01 01:00:00 14.7 2 Sudeste 5 Sur 0 -- -- 95
2020-11-01 00:00:00 15.8 4 Sudoeste 9 Oeste 0 -- -- 94
2020-10-31 23:00:00 15.1 3 Oeste 10 Sudoeste 0 -- -- 93
2020-10-31 22:00:00 15.7 0 Calma 7 Oeste 0 -- -- 92
2020-10-31 21:00:00 16.2 0 Calma 8 Este 0 -- -- 90
2020-10-31 20:00:00 17.2 3 Sudeste 6 Sudeste 0 -- -- 88
2020-10-31 19:00:00 18.3 3 Este 12 Sudeste 0 -- -- 82
2020-10-31 18:00:00 19.7 4 Este 25 Sudeste 0 -- -- 75
2020-10-31 17:00:00 21.2 14 Sudeste 23 Sudeste 0 -- -- 64
2020-10-31 16:00:00 23.2 12 Sudeste 28 Sudeste 0 -- -- 53
2020-10-31 15:00:00 24.1 13 Sudeste 23 Sudeste 0 -- -- 44
2020-10-31 14:00:00 24.4 14 Sudeste 21 Sudeste 0 -- -- 45
2020-10-31 13:00:00 24.6 3 Noroeste 11 Oeste 0 -- -- 42
2020-10-31 12:00:00 22 4 Noroeste 12 Oeste 0 -- -- 49
2020-10-31 11:00:00 19.2 9 Oeste 19 Oeste 0 -- -- 57
2020-10-31 10:00:00 15.8 7 Oeste 9 Oeste 0.2 -- -- 70
2020-10-31 09:00:00 11.8 6 Oeste 9 Oeste 0 -- -- 86
2020-10-31 08:00:00 9.5 3 Oeste 6 Oeste 0 -- -- 93
2020-10-31 07:00:00 9.5 3 Oeste 6 Oeste 0 -- -- 92
2020-10-31 06:00:00 10.5 0 Calma 9 Oeste 0 -- -- 90
2020-10-31 05:00:00 12.1 7 Sudoeste 11 Oeste 0 -- -- 93
2020-10-31 04:00:00 11.6 6 Oeste 8 Sudoeste 0 -- -- 94
2020-10-31 03:00:00 12 0 Calma 6 Oeste 0 -- -- 94
2020-10-31 02:00:00 13.5 5 Oeste 7 Sudoeste 0 -- -- 94
2020-10-31 01:00:00 13.1 3 Oeste 5 Sudoeste 0 -- -- 93
2020-10-31 00:00:00 15 4 Sudoeste 6 Sudoeste 0 -- -- 94
2020-10-30 23:00:00 15.1 4 Sudoeste 5 Sudoeste 0 -- -- 93
2020-10-30 22:00:00 15.6 0 Calma 4 Sudoeste 0 -- -- 92
2020-10-30 21:00:00 16.1 0 Calma 2 Este 0 -- -- 91
2020-10-30 20:00:00 17 2 Este 4 Este 0 -- -- 89
2020-10-30 19:00:00 18.3 3 Este 11 Este 0 -- -- 81
2020-10-30 18:00:00 20.2 7 Sudeste 17 Este 0 -- -- 74
2020-10-30 17:00:00 22.4 7 Sudeste 18 Sudeste 0 -- -- 49
2020-10-30 16:00:00 23.4 11 Sudeste 18 Este 0 -- -- 42
2020-10-30 15:00:00 24.2 10 Este 17 Este 0 -- -- 45
2020-10-30 14:00:00 25.3 8 Sudeste 17 Sudeste 0 -- -- 47
2020-10-30 13:00:00 23.6 5 Norte 11 Oeste 0 -- -- 48
2020-10-30 12:00:00 21.4 5 Oeste 10 Noroeste 0 -- -- 56
2020-10-30 11:00:00 18.9 6 Oeste 14 Oeste 0 -- -- 66
2020-10-30 10:00:00 15.9 9 Oeste 15 Oeste 0 -- -- 78
2020-10-30 09:00:00 12.4 3 Noroeste 10 Oeste 0 -- -- 93
2020-10-30 08:00:00 11.2 6 Oeste 10 Oeste 0.2 -- -- 95
2020-10-30 07:00:00 10.6 0 Calma 5 Oeste 0 -- -- 94
2020-10-30 06:00:00 11 0 Calma 2 Nordeste 0 -- -- 94
2020-10-30 05:00:00 11.8 0 Calma 7 Sudoeste 0 -- -- 94
2020-10-30 04:00:00 12.4 3 Oeste 9 Sudoeste 0 -- -- 93
2020-10-30 03:00:00 13.1 4 Oeste 9 Oeste 0 -- -- 94
2020-10-30 02:00:00 14.2 5 Sudoeste 9 Oeste 0 -- -- 94
2020-10-30 01:00:00 14.6 5 Oeste 6 Sudoeste 0 -- -- 94
2020-10-30 00:00:00 15.1 5 Sudoeste 6 Sudoeste 0 -- -- 93
2020-10-29 23:00:00 15.2 4 Sudoeste 6 Sudoeste 0 -- -- 93
2020-10-29 22:00:00 15.5 0 Calma 3 Oeste 0 -- -- 92
2020-10-29 21:00:00 16.1 0 Calma 3 Este 0 -- -- 91
2020-10-29 20:00:00 16.6 3 Este 4 Este 0 -- -- 89
2020-10-29 19:00:00 17.7 0 Calma 8 Sudeste 0 -- -- 83
2020-10-29 18:00:00 19.6 5 Este 15 Sudeste 0 -- -- 75
2020-10-29 17:00:00 21 8 Este 16 Sudeste 0 -- -- 65
2020-10-29 16:00:00 22.1 8 Sudeste 21 Sudeste 0 -- -- 63
2020-10-29 15:00:00 22.7 11 Sudeste 21 Sudeste 0 -- -- 64
2020-10-29 14:00:00 22.4 10 Este 24 Este 0 -- -- 62
2020-10-29 13:00:00 23.2 10 Nordeste 15 Este 0 -- -- 55
2020-10-29 12:00:00 22.6 5 Norte 12 Norte 0 -- -- 58
2020-10-29 11:00:00 21 5 Noroeste 12 Noroeste 0 -- -- 57
2020-10-29 10:00:00 17.8 6 Oeste 9 Oeste 0 -- -- 65
2020-10-29 09:00:00 14.4 5 Oeste 9 Sudoeste 0 -- -- 74
2020-10-29 08:00:00 13.3 4 Oeste 12 Sudoeste 0 -- -- 77
2020-10-29 07:00:00 13.7 7 Sudoeste 12 Sudoeste 0 -- -- 75
2020-10-29 06:00:00 13.9 7 Sudoeste 10 Sudoeste 0 -- -- 75
2020-10-29 05:00:00 13.1 3 Oeste 8 Oeste 0 -- -- 77
2020-10-29 04:00:00 13 0 Calma 10 Sudoeste 0 -- -- 77
2020-10-29 03:00:00 13.3 4 Oeste 7 Oeste 0 -- -- 75
2020-10-29 02:00:00 13.9 2 Oeste 11 Oeste 0 -- -- 72
2020-10-29 01:00:00 14.8 4 Oeste 12 Sudoeste 0 -- -- 71
2020-10-29 00:00:00 15 4 Oeste 9 Sudoeste 0 -- -- 75
2020-10-28 23:00:00 15 5 Sudoeste 9 Sudoeste 0 -- -- 77
2020-10-28 22:00:00 15.5 5 Oeste 9 Sudoeste 0 -- -- 73
2020-10-28 21:00:00 16.1 3 Este 5 Este 0 -- -- 67
2020-10-28 20:00:00 17.6 0 Calma 16 Sudeste 0 -- -- 61
2020-10-28 19:00:00 19.1 11 Sudeste 21 Sudeste 0 -- -- 59
2020-10-28 18:00:00 20.3 10 Sudeste 24 Sur 0 -- -- 53
2020-10-28 17:00:00 21.2 13 Sudeste 27 Sudeste 0 -- -- 52
2020-10-28 16:00:00 22.3 14 Sudeste 26 Sur 0 -- -- 47
2020-10-28 15:00:00 23.9 15 Sur 25 Sur 0 -- -- 42
2020-10-28 14:00:00 24.5 5 Oeste 13 Oeste 0 -- -- 37
2020-10-28 13:00:00 23.1 9 Oeste 18 Sudoeste 0 -- -- 40
2020-10-28 12:00:00 21.8 9 Oeste 22 Oeste 0 -- -- 42
2020-10-28 11:00:00 19.8 12 Oeste 26 Oeste 0 -- -- 46
2020-10-28 10:00:00 17.5 15 Oeste 24 Oeste 0 -- -- 52
2020-10-28 09:00:00 15.4 12 Oeste 22 Oeste 0 -- -- 57
2020-10-28 08:00:00 13.9 12 Oeste 21 Oeste 0 -- -- 60
2020-10-28 07:00:00 13.5 9 Oeste 19 Oeste 0 -- -- 61
2020-10-28 06:00:00 12.8 9 Oeste 14 Oeste 0 -- -- 62
2020-10-28 05:00:00 12.4 5 Oeste 14 Sudoeste 0 -- -- 61
2020-10-28 04:00:00 12.6 3 Oeste 14 Oeste 0 -- -- 60
2020-10-28 03:00:00 14.5 8 Oeste 14 Sudoeste 0 -- -- 53
2020-10-28 02:00:00 15.5 10 Sudoeste 18 Sudoeste 0 -- -- 50
2020-10-28 01:00:00 15.8 7 Sudoeste 15 Sudoeste 0 -- -- 49
2020-10-28 00:00:00 15.7 7 Sudoeste 17 Oeste 0 -- -- 53
2020-10-27 23:00:00 15.3 8 Sudoeste 13 Sudoeste 0 -- -- 58
2020-10-27 22:00:00 15.9 5 Sudoeste 15 Sudoeste 0 -- -- 58
2020-10-27 21:00:00 16.6 5 Sudoeste 22 Sudoeste 0 -- -- 56
2020-10-27 20:00:00 17 9 Sudoeste 24 Sudoeste 0 -- -- 56
2020-10-27 19:00:00 17.8 15 Sur 28 Sudoeste 0 -- -- 54
2020-10-27 18:00:00 19.5 16 Sur 27 Sudoeste 0 -- -- 48
2020-10-27 17:00:00 22.3 10 Sudoeste 23 Sudoeste 0 -- -- 27
2020-10-27 16:00:00 21.2 10 Sudoeste 26 Oeste 0 -- -- 28
2020-10-27 15:00:00 22.5 12 Oeste 26 Oeste 0 -- -- 27
2020-10-27 14:00:00 21.3 15 Oeste 27 Oeste 0 -- -- 32
2020-10-27 13:00:00 20 18 Oeste 28 Sudoeste 0 -- -- 35
2020-10-27 12:00:00 18.2 10 Oeste 24 Oeste 0 -- -- 41
2020-10-27 11:00:00 16.1 5 Oeste 17 Oeste 0 -- -- 48
2020-10-27 10:00:00 14 12 Oeste 28 Oeste 0 -- -- 54
2020-10-27 09:00:00 13.6 12 Oeste 24 Oeste 0 -- -- 54
2020-10-27 08:00:00 12 12 Oeste 21 Oeste 0 -- -- 58
2020-10-27 07:00:00 10.7 2 Oeste 14 Sudoeste 0 -- -- 61
2020-10-27 06:00:00 11.7 5 Noroeste 21 Sudoeste 0 -- -- 57
2020-10-27 05:00:00 12.9 11 Oeste 22 Sudoeste 0 -- -- 53
2020-10-27 04:00:00 12.9 12 Sudoeste 26 Oeste 0 -- -- 53
2020-10-27 03:00:00 12.8 8 Sudoeste 20 Sudoeste 0 -- -- 53
2020-10-27 02:00:00 13.8 10 Sudoeste 18 Sudoeste 0 -- -- 49
2020-10-27 01:00:00 13.9 10 Sudoeste 30 Oeste 0 -- -- 49
2020-10-27 00:00:00 15.5 12 Oeste 29 Oeste 0 -- -- 44
2020-10-26 23:00:00 15.9 14 Oeste 28 Oeste 0 -- -- 43
2020-10-26 22:00:00 15.6 17 Oeste 28 Noroeste 0 -- -- 45
2020-10-26 21:00:00 16.4 21 Noroeste 30 Noroeste 0 -- -- 41
2020-10-26 20:00:00 16.8 14 Noroeste 30 Noroeste 0 -- -- 39
2020-10-26 19:00:00 17.3 17 Noroeste 26 Noroeste 0 -- -- 39
2020-10-26 18:00:00 18.5 13 Noroeste 39 Noroeste 0 -- -- 37
2020-10-26 17:00:00 20.3 25 Noroeste 47 Oeste 0 -- -- 33
2020-10-26 16:00:00 20.8 28 Noroeste 42 Oeste 0 -- -- 32
2020-10-26 15:00:00 20.7 26 Oeste 40 Oeste 0 -- -- 33
2020-10-26 14:00:00 20.5 26 Oeste 46 Oeste 0 -- -- 35
2020-10-26 13:00:00 19.8 34 Oeste 58 Oeste 0 -- -- 33
2020-10-26 12:00:00 19.6 30 Oeste 44 Oeste 0 -- -- 35
2020-10-26 11:00:00 18.7 30 Oeste 53 Oeste 0 -- -- 40
2020-10-26 10:00:00 18.2 24 Noroeste 47 Noroeste 0 -- -- 44
2020-10-26 09:00:00 17.1 16 Noroeste 45 Noroeste 0 -- -- 47
2020-10-26 08:00:00 17.5 26 Noroeste 49 Oeste 0 -- -- 46
2020-10-26 07:00:00 17.2 12 Oeste 25 Oeste 0 -- -- 59
2020-10-26 06:00:00 17.8 17 Oeste 35 Oeste 0 -- -- 56
2020-10-26 05:00:00 17.2 7 Noroeste 16 Oeste 0 -- -- 61
2020-10-26 04:00:00 16.4 4 Oeste 15 Oeste 0 -- -- 59
2020-10-26 03:00:00 18.3 8 Sudoeste 24 Sudoeste 0 -- -- 51
2020-10-26 02:00:00 19.6 13 Sudoeste 29 Oeste 0 -- -- 48
2020-10-26 01:00:00 18.1 10 Sudoeste 27 Oeste 0 -- -- 53
2020-10-26 00:00:00 18.5 10 Sudoeste 23 Sudoeste 0 -- -- 52